Terminal Aerodrome Forecast
Issued by NWS Pittsburgh, PA

Current Version | Previous Version | Graphics & Text | Print | Product List | Glossary On
Versions: 1 2 3 4 5 6 7 8 9 10 11 12 13 14 15 16 17 18 19 20 21 22 23 24 25 26
400
FTUS41 KPBZ 162323
TAFPIT
TAF
KPIT 162323Z 1700/1806 24004KT P6SM FEW250
     FM172000 19005KT P6SM VCSH OVC070
     FM180000 21004KT P6SM VCSH OVC025=

USA.gov is the U.S. government's official web portal to all federal, state and local government web resources and services.